Terug naar catalogus

COSMOS 886 DEB

ActiefLEO
NORAD 9723·DEBRIS·🇷🇺 Russia

Gelanceerd Dec 27, 1976 vanaf Baikonur Cosmodrome

Loading…

Volgende Passages (komende 24 uur)

TLE

VersSource: Space-Track

Epoch: Sep 14, 2026, 09:48 UTC

1 09723U 76126U   26257.40859884  .00002328  00000-0  21823-2 0  9994
2 09723  65.7549  36.0651 0693829 245.9276 106.7689 13.07349218310539

Volg COSMOS 886 DEB in realtime met AllMySat

Download on the App Store